Powrót do katalogu

STARLINK-36890

AktywnyŁącznośćVLEO
NORAD 68258·PAYLOAD·🇺🇸 United States

Wystrzelony Mar 17, 2026 z Vandenberg Space Force Base

Loading…

Następne Przeloty (najbliższe 24 godziny)

TLE

ŚwieżeSource: CelesTrak SupGP

Epoka: Sep 14, 2026, 21:26 UTC

1 68258C 26054AC  26257.89354167 -.00050063  00000+0 -14782-2 0  2577
2 68258  53.1565 136.2269 0001198  93.0673 338.3980 15.34434344    12

Śledź STARLINK-36890 w czasie rzeczywistym z AllMySat

Download on the App Store